Time,TemperatureF,DewpointF,PressureIn,WindDirection,WindDirectionDegrees,WindSpeedMPH,WindSpeedGustMPH,Humidity,HourlyPrecipIn,Conditions,Clouds,dailyrainin,SolarRadiationWatts/m^2,SoftwareType,DateUTC
2013-12-06 00:02:00,26.0,12.1,30.14,ENE,73,0.0,3.0,55,0.00,,---,0.00,0.00,VWS V14.01,2013-12-06 08:02:00,
2013-12-06 00:07:00,25.9,12.0,30.14,ENE,74,1.0,3.0,55,0.00,,---,0.00,0.00,VWS V14.01,2013-12-06 08:07:00,
2013-12-06 00:12:00,25.9,12.0,30.14,ENE,57,1.0,3.0,55,0.00,,---,0.00,0.00,VWS V14.01,2013-12-06 08:12:00,
2013-12-06 00:17:00,25.7,12.2,30.14,ENE,76,2.0,4.0,56,0.00,,---,0.00,0.00,VWS V14.01,2013-12-06 08:17:00,
2013-12-06 00:22:00,25.6,11.7,30.14,East,95,4.0,4.0,55,0.00,,---,0.00,0.00,VWS V14.01,2013-12-06 08:22:00,
2013-12-06 00:27:00,25.6,11.3,30.14,ENE,65,0.0,5.0,54,0.00,,---,0.00,0.00,VWS V14.01,2013-12-06 08:27:00,
2013-12-06 00:32:00,25.6,11.3,30.14,NE,40,0.0,5.0,54,0.00,,---,0.00,0.00,VWS V14.01,2013-12-06 08:32:00,
2013-12-06 00:37:00,25.6,11.3,30.14,ENE,76,0.0,6.0,54,0.00,,---,0.00,0.00,VWS V14.01,2013-12-06 08:37:00,
2013-12-06 00:42:00,25.5,10.8,30.14,ENE,74,1.0,6.0,53,0.00,,---,0.00,0.00,VWS V14.01,2013-12-06 08:42:00,
2013-12-06 00:47:00,25.4,10.7,30.14,ENE,71,1.0,4.0,53,0.00,,---,0.00,0.00,VWS V14.01,2013-12-06 08:47:00,
2013-12-06 00:52:00,25.3,11.0,30.14,East,90,0.0,4.0,54,0.00,,---,0.00,0.00,VWS V14.01,2013-12-06 08:52:00,
2013-12-06 00:57:00,25.1,11.2,30.14,NNW,347,1.0,2.0,55,0.00,,---,0.00,0.00,VWS V14.01,2013-12-06 08:57:00,
2013-12-06 01:02:00,25.0,11.1,30.14,East,79,0.0,3.0,55,0.00,,---,0.00,0.00,VWS V14.01,2013-12-06 09:02:00,
2013-12-06 01:07:00,24.8,10.9,30.14,ENE,65,0.0,3.0,55,0.00,,---,0.00,0.00,VWS V14.01,2013-12-06 09:07:00,
2013-12-06 01:12:00,24.7,10.9,30.14,ENE,74,2.0,3.0,55,0.00,,---,0.00,0.00,VWS V14.01,2013-12-06 09:12:00,
2013-12-06 01:17:00,24.6,10.8,30.13,ENE,71,0.0,4.0,55,0.00,,---,0.00,0.00,VWS V14.01,2013-12-06 09:17:00,
2013-12-06 01:22:00,24.5,10.7,30.14,ENE,77,0.0,4.0,55,0.00,,---,0.00,0.00,VWS V14.01,2013-12-06 09:22:00,
2013-12-06 01:28:00,24.4,10.1,30.14,NE,51,0.0,4.0,54,0.00,,---,0.00,0.00,VWS V14.01,2013-12-06 09:28:00,
2013-12-06 01:33:00,24.4,10.1,30.14,East,82,3.0,4.0,54,0.00,,---,0.00,0.00,VWS V14.01,2013-12-06 09:33:00,
2013-12-06 01:38:00,24.3,10.1,30.14,ENE,71,0.0,6.0,54,0.00,,---,0.00,0.00,VWS V14.01,2013-12-06 09:38:00,
2013-12-06 01:43:00,24.3,10.5,30.14,ENE,69,0.0,6.0,55,0.00,,---,0.00,0.00,VWS V14.01,2013-12-06 09:43:00,
2013-12-06 01:48:00,24.2,10.0,30.14,ENE,73,0.0,3.0,54,0.00,,---,0.00,0.00,VWS V14.01,2013-12-06 09:48:00,
2013-12-06 01:53:00,24.3,10.1,30.14,ENE,67,0.0,4.0,54,0.00,,---,0.00,0.00,VWS V14.01,2013-12-06 09:53:00,
2013-12-06 01:58:00,24.3,10.1,30.14,East,79,0.0,4.0,54,0.00,,---,0.00,0.00,VWS V14.01,2013-12-06 09:58:00,
2013-12-06 02:03:00,24.3,10.5,30.14,East,79,0.0,3.0,55,0.00,,---,0.00,0.00,VWS V14.01,2013-12-06 10:03:00,
2013-12-06 02:08:00,24.2,10.4,30.14,ENE,77,0.0,2.0,55,0.00,,---,0.00,0.00,VWS V14.01,2013-12-06 10:08:00,
2013-12-06 02:13:00,24.2,10.0,30.14,East,101,0.0,3.0,54,0.00,,---,0.00,0.00,VWS V14.01,2013-12-06 10:13:00,
2013-12-06 02:18:00,24.2,10.4,30.14,East,79,0.0,4.0,55,0.00,,---,0.00,0.00,VWS V14.01,2013-12-06 10:18:00,
2013-12-06 02:23:00,24.2,10.4,30.14,East,87,0.0,4.0,55,0.00,,---,0.00,0.00,VWS V14.01,2013-12-06 10:23:00,
2013-12-06 02:28:00,24.1,10.3,30.14,ENE,67,1.0,3.0,55,0.00,,---,0.00,0.00,VWS V14.01,2013-12-06 10:28:00,
2013-12-06 02:33:00,24.0,10.2,30.14,East,83,2.0,4.0,55,0.00,,---,0.00,0.00,VWS V14.01,2013-12-06 10:33:00,
2013-12-06 02:38:00,24.0,10.2,30.14,ENE,69,2.0,4.0,55,0.00,,---,0.00,0.00,VWS V14.01,2013-12-06 10:38:00,
2013-12-06 02:43:00,23.9,10.1,30.14,ENE,71,0.0,4.0,55,0.00,,---,0.00,0.00,VWS V14.01,2013-12-06 10:43:00,
2013-12-06 02:48:00,23.9,10.5,30.14,ENE,65,0.0,2.0,56,0.00,,---,0.00,0.00,VWS V14.01,2013-12-06 10:48:00,
2013-12-06 02:53:00,23.8,10.4,30.13,East,79,0.0,2.0,56,0.00,,---,0.00,0.00,VWS V14.01,2013-12-06 10:53:00,
2013-12-06 02:58:00,23.7,9.9,30.13,NNE,27,0.0,2.0,55,0.00,,---,0.00,0.00,VWS V14.01,2013-12-06 10:58:00,
2013-12-06 03:03:00,23.7,10.3,30.13,ENE,63,0.0,3.0,56,0.00,,---,0.00,0.00,VWS V14.01,2013-12-06 11:03:00,
2013-12-06 03:08:00,23.6,9.8,30.13,ENE,63,0.0,2.0,55,0.00,,---,0.00,0.00,VWS V14.01,2013-12-06 11:08:00,
2013-12-06 03:13:00,23.5,10.1,30.14,ENE,64,1.0,2.0,56,0.00,,---,0.00,0.00,VWS V14.01,2013-12-06 11:13:00,
2013-12-06 03:18:00,23.4,9.6,30.13,ENE,69,0.0,3.0,55,0.00,,---,0.00,0.00,VWS V14.01,2013-12-06 11:18:00,
2013-12-06 03:23:00,23.4,10.0,30.13,East,81,1.0,3.0,56,0.00,,---,0.00,0.00,VWS V14.01,2013-12-06 11:23:00,
2013-12-06 03:28:00,23.4,10.0,30.13,ENE,73,1.0,3.0,56,0.00,,---,0.00,0.00,VWS V14.01,2013-12-06 11:28:00,
2013-12-06 03:33:00,23.3,9.9,30.13,East,85,1.0,3.0,56,0.00,,---,0.00,0.00,VWS V14.01,2013-12-06 11:33:00,
2013-12-06 03:38:00,23.2,9.8,30.13,East,84,1.0,3.0,56,0.00,,---,0.00,0.00,VWS V14.01,2013-12-06 11:38:00,
2013-12-06 03:43:00,23.1,9.8,30.13,East,89,0.0,3.0,56,0.00,,---,0.00,0.00,VWS V14.01,2013-12-06 11:43:00,
2013-12-06 03:48:00,23.1,9.8,30.14,ENE,74,2.0,3.0,56,0.00,,---,0.00,0.00,VWS V14.01,2013-12-06 11:48:00,
2013-12-06 03:54:00,23.0,9.7,30.14,East,82,0.0,3.0,56,0.00,,---,0.00,0.00,VWS V14.01,2013-12-06 11:54:00,
2013-12-06 03:59:00,22.9,10.0,30.14,ESE,105,0.0,2.0,57,0.00,,---,0.00,0.00,VWS V14.01,2013-12-06 11:59:00,
2013-12-06 04:04:00,22.9,10.0,30.14,NE,36,0.0,3.0,57,0.00,,---,0.00,0.00,VWS V14.01,2013-12-06 12:04:00,
2013-12-06 04:09:00,22.8,9.5,30.14,ENE,72,0.0,3.0,56,0.00,,---,0.00,0.00,VWS V14.01,2013-12-06 12:09:00,
2013-12-06 04:14:00,22.8,9.9,30.13,ENE,74,0.0,4.0,57,0.00,,---,0.00,0.00,VWS V14.01,2013-12-06 12:14:00,
2013-12-06 04:19:00,22.8,9.9,30.14,East,79,0.0,4.0,57,0.00,,---,0.00,0.00,VWS V14.01,2013-12-06 12:19:00,
2013-12-06 04:24:00,22.7,9.4,30.13,ENE,74,0.0,3.0,56,0.00,,---,0.00,0.00,VWS V14.01,2013-12-06 12:24:00,
2013-12-06 04:29:00,22.7,9.4,30.13,East,82,1.0,3.0,56,0.00,,---,0.00,0.00,VWS V14.01,2013-12-06 12:29:00,
2013-12-06 04:34:00,22.8,9.5,30.13,ENE,76,0.0,4.0,56,0.00,,---,0.00,0.00,VWS V14.01,2013-12-06 12:34:00,
2013-12-06 04:39:00,22.8,9.5,30.13,ENE,78,0.0,3.0,56,0.00,,---,0.00,0.00,VWS V14.01,2013-12-06 12:39:00,
2013-12-06 04:44:00,22.9,11.5,30.13,ENE,71,1.0,3.0,61,0.00,,---,0.00,0.00,VWS V14.01,2013-12-06 12:44:00,
2013-12-06 04:49:00,22.9,10.0,30.13,ENE,70,0.0,3.0,57,0.00,,---,0.00,0.00,VWS V14.01,2013-12-06 12:49:00,
2013-12-06 04:54:00,22.8,9.9,30.13,ENE,65,0.0,3.0,57,0.00,,---,0.00,0.00,VWS V14.01,2013-12-06 12:54:00,
2013-12-06 04:59:00,22.9,11.5,30.12,ENE,75,0.0,4.0,61,0.00,,---,0.00,0.00,VWS V14.01,2013-12-06 12:59:00,
2013-12-06 05:04:00,22.9,10.0,30.12,East,89,1.0,4.0,57,0.00,,---,0.00,0.00,VWS V14.01,2013-12-06 13:04:00,
2013-12-06 05:09:00,23.0,9.7,30.12,NNE,23,0.0,5.0,56,0.00,,---,0.00,0.00,VWS V14.01,2013-12-06 13:09:00,
2013-12-06 05:14:00,23.1,9.8,30.12,East,86,2.0,5.0,56,0.00,,---,0.00,0.00,VWS V14.01,2013-12-06 13:14:00,
2013-12-06 05:19:00,23.1,9.8,30.12,East,85,0.0,4.0,56,0.00,,---,0.00,0.00,VWS V14.01,2013-12-06 13:19:00,
2013-12-06 05:24:00,23.1,9.4,30.12,East,84,0.0,4.0,55,0.00,,---,0.00,0.00,VWS V14.01,2013-12-06 13:24:00,
2013-12-06 05:29:00,23.1,9.4,30.12,NNW,339,0.0,5.0,55,0.00,,---,0.00,0.00,VWS V14.01,2013-12-06 13:29:00,
2013-12-06 05:34:00,23.1,9.4,30.13,ENE,78,2.0,4.0,55,0.00,,---,0.00,0.00,VWS V14.01,2013-12-06 13:34:00,
2013-12-06 05:39:00,23.1,9.4,30.13,ENE,78,0.0,4.0,55,0.00,,---,0.00,0.00,VWS V14.01,2013-12-06 13:39:00,
2013-12-06 05:44:00,23.0,9.7,30.13,NE,51,1.0,3.0,56,0.00,,---,0.00,0.00,VWS V14.01,2013-12-06 13:44:00,
2013-12-06 05:49:00,23.0,9.2,30.13,ENE,76,2.0,3.0,55,0.00,,---,0.00,0.00,VWS V14.01,2013-12-06 13:49:00,
2013-12-06 05:54:00,23.0,9.7,30.13,ENE,78,3.0,4.0,56,0.00,,---,0.00,0.00,VWS V14.01,2013-12-06 13:54:00,
2013-12-06 05:59:00,22.9,10.0,30.13,East,85,0.0,4.0,57,0.00,,---,0.00,0.00,VWS V14.01,2013-12-06 13:59:00,
2013-12-06 06:04:00,22.9,9.2,30.13,ENE,67,0.0,3.0,55,0.00,,---,0.00,0.00,VWS V14.01,2013-12-06 14:04:00,
2013-12-06 06:09:00,23.0,9.7,30.13,NE,40,0.0,4.0,56,0.00,,---,0.00,0.00,VWS V14.01,2013-12-06 14:09:00,
2013-12-06 06:14:00,23.1,9.4,30.13,ENE,63,0.0,4.0,55,0.00,,---,0.00,0.00,VWS V14.01,2013-12-06 14:14:00,
2013-12-06 06:19:00,23.2,9.4,30.12,ESE,112,2.0,6.0,55,0.00,,---,0.00,0.00,VWS V14.01,2013-12-06 14:19:00,
2013-12-06 06:24:00,23.3,9.5,30.13,East,86,0.0,6.0,55,0.00,,---,0.00,0.00,VWS V14.01,2013-12-06 14:24:00,
2013-12-06 06:30:00,23.4,9.6,30.13,ENE,76,2.0,5.0,55,0.00,,---,0.00,0.00,VWS V14.01,2013-12-06 14:30:00,
2013-12-06 06:35:00,23.4,9.6,30.13,East,80,2.0,3.0,55,0.00,,---,0.00,0.00,VWS V14.01,2013-12-06 14:35:00,
2013-12-06 06:40:00,23.5,9.7,30.13,ENE,74,0.0,3.0,55,0.00,,---,0.00,0.00,VWS V14.01,2013-12-06 14:40:00,
2013-12-06 06:45:00,23.6,9.4,30.13,ENE,62,0.0,3.0,54,0.00,,---,0.00,0.00,VWS V14.01,2013-12-06 14:45:00,
2013-12-06 06:50:00,23.6,9.8,30.13,NNE,19,1.0,3.0,55,0.00,,---,0.00,0.00,VWS V14.01,2013-12-06 14:50:00,
2013-12-06 06:55:00,23.6,9.8,30.13,East,91,0.0,3.0,55,0.00,,---,0.00,0.00,VWS V14.01,2013-12-06 14:55:00,
2013-12-06 07:00:00,23.7,9.1,30.13,ENE,77,0.0,6.0,53,0.00,,---,0.00,0.00,VWS V14.01,2013-12-06 15:00:00,
2013-12-06 07:05:00,23.7,9.5,30.13,East,85,0.0,6.0,54,0.00,,---,0.00,0.00,VWS V14.01,2013-12-06 15:05:00,
2013-12-06 07:10:00,23.6,9.4,30.13,East,86,0.0,4.0,54,0.00,,---,0.00,0.00,VWS V14.01,2013-12-06 15:10:00,
2013-12-06 07:15:00,23.5,9.7,30.13,NNE,15,0.0,4.0,55,0.00,,---,0.00,0.00,VWS V14.01,2013-12-06 15:15:00,
2013-12-06 07:20:00,23.5,8.9,30.13,North,5,0.0,2.0,53,0.00,,---,0.00,0.00,VWS V14.01,2013-12-06 15:20:00,
2013-12-06 07:25:00,23.5,9.3,30.13,ENE,71,0.0,2.0,54,0.00,,---,0.00,0.00,VWS V14.01,2013-12-06 15:25:00,
2013-12-06 07:30:00,23.4,9.6,30.13,ENE,77,0.0,2.0,55,0.00,,---,0.00,0.00,VWS V14.01,2013-12-06 15:30:00,
2013-12-06 07:35:00,23.4,9.6,30.13,ENE,72,0.0,2.0,55,0.00,,---,0.00,0.00,VWS V14.01,2013-12-06 15:35:00,
2013-12-06 07:40:00,23.3,9.5,30.13,ENE,65,0.0,4.0,55,0.00,,---,0.00,0.00,VWS V14.01,2013-12-06 15:40:00,
2013-12-06 07:45:00,23.3,9.5,30.13,ENE,70,0.0,4.0,55,0.00,,---,0.00,0.00,VWS V14.01,2013-12-06 15:45:00,
2013-12-06 07:50:00,23.3,9.5,30.13,NE,51,0.0,2.0,55,0.00,,---,0.00,5.00,VWS V14.01,2013-12-06 15:50:00,
2013-12-06 07:55:00,23.3,9.5,30.13,NW,315,0.0,4.0,55,0.00,,---,0.00,7.00,VWS V14.01,2013-12-06 15:55:00,
2013-12-06 08:00:00,23.3,9.5,30.13,East,79,1.0,3.0,55,0.00,,---,0.00,9.00,VWS V14.01,2013-12-06 16:00:00,
2013-12-06 08:05:00,23.4,9.6,30.13,ENE,78,0.0,2.0,55,0.00,,---,0.00,12.00,VWS V14.01,2013-12-06 16:05:00,
2013-12-06 08:10:00,23.5,10.1,30.13,ENE,78,0.0,1.0,56,0.00,,---,0.00,18.00,VWS V14.01,2013-12-06 16:10:00,
2013-12-06 08:15:00,23.5,10.5,30.13,ENE,73,0.0,1.0,57,0.00,,---,0.00,23.00,VWS V14.01,2013-12-06 16:15:00,
2013-12-06 08:20:00,23.6,9.8,30.13,ENE,65,0.0,1.0,55,0.00,,---,0.00,25.00,VWS V14.01,2013-12-06 16:20:00,
2013-12-06 08:25:00,23.7,9.9,30.13,ENE,65,0.0,1.0,55,0.00,,---,0.00,30.00,VWS V14.01,2013-12-06 16:25:00,
2013-12-06 08:30:00,23.7,10.3,30.13,North,5,0.0,1.0,56,0.00,,---,0.00,40.00,VWS V14.01,2013-12-06 16:30:00,
2013-12-06 08:35:00,23.8,10.4,30.13,NE,50,0.0,1.0,56,0.00,,---,0.00,39.00,VWS V14.01,2013-12-06 16:35:00,
2013-12-06 08:40:00,23.9,10.1,30.14,NE,51,0.0,2.0,55,0.00,,---,0.00,39.00,VWS V14.01,2013-12-06 16:40:00,
2013-12-06 08:45:00,24.0,10.6,30.14,NE,43,0.0,2.0,56,0.00,,---,0.00,42.00,VWS V14.01,2013-12-06 16:45:00,
2013-12-06 08:50:00,24.2,10.4,30.14,East,80,0.0,2.0,55,0.00,,---,0.00,44.00,VWS V14.01,2013-12-06 16:50:00,
2013-12-06 08:55:00,24.2,10.8,30.14,ENE,75,0.0,3.0,56,0.00,,---,0.00,46.00,VWS V14.01,2013-12-06 16:55:00,
2013-12-06 09:00:00,24.3,10.9,30.14,East,84,0.0,3.0,56,0.00,,---,0.00,44.00,VWS V14.01,2013-12-06 17:00:00,
2013-12-06 09:05:00,24.3,10.9,30.14,ENE,58,0.0,2.0,56,0.00,,---,0.00,51.00,VWS V14.01,2013-12-06 17:05:00,
2013-12-06 09:10:00,24.3,10.9,30.14,ENE,72,0.0,1.0,56,0.00,,---,0.00,44.00,VWS V14.01,2013-12-06 17:10:00,
2013-12-06 09:15:00,24.4,11.0,30.14,NE,34,0.0,1.0,56,0.00,,---,0.00,44.00,VWS V14.01,2013-12-06 17:15:00,
2013-12-06 09:20:00,24.4,11.8,30.14,NNE,20,0.0,1.0,58,0.00,,---,0.00,42.00,VWS V14.01,2013-12-06 17:20:00,
2013-12-06 09:25:00,24.4,11.8,30.14,NE,53,1.0,2.0,58,0.00,,---,0.00,46.00,VWS V14.01,2013-12-06 17:25:00,
2013-12-06 09:30:00,24.5,11.5,30.14,East,96,0.0,2.0,57,0.00,,---,0.00,54.00,VWS V14.01,2013-12-06 17:30:00,
2013-12-06 09:35:00,24.5,11.5,30.14,East,96,0.0,1.0,57,0.00,,---,0.00,60.00,VWS V14.01,2013-12-06 17:35:00,
2013-12-06 09:40:00,24.7,11.6,30.14,ENE,68,0.0,2.0,57,0.00,,---,0.00,63.00,VWS V14.01,2013-12-06 17:40:00,
2013-12-06 09:45:00,24.8,12.1,30.14,NE,55,0.0,2.0,58,0.00,,---,0.00,70.00,VWS V14.01,2013-12-06 17:45:00,
2013-12-06 09:50:00,25.1,12.0,30.14,NE,34,0.0,2.0,57,0.00,,---,0.00,98.00,VWS V14.01,2013-12-06 17:50:00,
2013-12-06 09:55:00,25.3,12.6,30.14,ENE,65,0.0,1.0,58,0.00,,---,0.00,107.00,VWS V14.01,2013-12-06 17:55:00,
2013-12-06 10:00:00,25.6,12.5,30.14,ENE,65,0.0,1.0,57,0.00,,---,0.00,97.00,VWS V14.01,2013-12-06 18:00:00,
2013-12-06 10:05:00,26.0,12.5,30.14,East,80,0.0,1.0,56,0.00,,---,0.00,88.00,VWS V14.01,2013-12-06 18:05:00,
2013-12-06 10:10:00,26.2,12.7,30.14,NE,38,0.0,1.0,56,0.00,,---,0.00,91.00,VWS V14.01,2013-12-06 18:10:00,
2013-12-06 10:15:00,26.5,12.5,30.14,NE,41,0.0,1.0,55,0.00,,---,0.00,62.00,VWS V14.01,2013-12-06 18:15:00,
2013-12-06 10:20:00,26.7,12.7,30.14,NNE,19,0.0,2.0,55,0.00,,---,0.00,95.00,VWS V14.01,2013-12-06 18:20:00,
2013-12-06 10:25:00,26.8,12.8,30.14,NNE,13,0.0,2.0,55,0.00,,---,0.00,100.00,VWS V14.01,2013-12-06 18:25:00,
2013-12-06 10:31:00,26.9,12.5,30.14,NNE,22,0.0,1.0,54,0.00,,---,0.00,113.00,VWS V14.01,2013-12-06 18:31:00,
2013-12-06 10:36:00,27.1,12.7,30.14,North,5,0.0,2.0,54,0.00,,---,0.00,81.00,VWS V14.01,2013-12-06 18:36:00,
2013-12-06 10:41:00,27.3,12.9,30.14,NNE,16,0.0,2.0,54,0.00,,---,0.00,81.00,VWS V14.01,2013-12-06 18:41:00,
2013-12-06 10:46:00,27.4,12.5,30.14,NNE,29,1.0,3.0,53,0.00,,---,0.00,67.00,VWS V14.01,2013-12-06 18:46:00,
2013-12-06 10:51:00,27.4,12.5,30.14,NE,46,1.0,1.0,53,0.00,,---,0.00,81.00,VWS V14.01,2013-12-06 18:51:00,
2013-12-06 10:56:00,27.4,11.7,30.14,East,97,0.0,2.0,51,0.00,,---,0.00,197.00,VWS V14.01,2013-12-06 18:56:00,
2013-12-06 11:01:00,27.5,12.2,30.14,NNW,348,0.0,1.0,52,0.00,,---,0.00,255.00,VWS V14.01,2013-12-06 19:01:00,
2013-12-06 11:06:00,27.8,12.9,30.13,NNE,19,0.0,3.0,53,0.00,,---,0.00,288.00,VWS V14.01,2013-12-06 19:06:00,
2013-12-06 11:11:00,28.1,12.3,30.13,SE,140,0.0,3.0,51,0.00,,---,0.00,139.00,VWS V14.01,2013-12-06 19:11:00,
2013-12-06 11:16:00,28.5,12.7,30.13,NNE,17,0.0,1.0,51,0.00,,---,0.00,169.00,VWS V14.01,2013-12-06 19:16:00,
2013-12-06 11:21:00,29.0,13.1,30.13,NNE,32,0.0,1.0,51,0.00,,---,0.00,183.00,VWS V14.01,2013-12-06 19:21:00,
2013-12-06 11:26:00,29.3,12.5,30.13,NNE,26,0.0,0.0,49,0.00,,---,0.00,142.00,VWS V14.01,2013-12-06 19:26:00,
2013-12-06 11:31:00,29.6,12.3,30.13,North,9,1.0,2.0,48,0.00,,---,0.00,334.00,VWS V14.01,2013-12-06 19:31:00,
2013-12-06 11:36:00,30.2,13.8,30.12,ENE,76,0.0,2.0,50,0.00,,---,0.00,443.00,VWS V14.01,2013-12-06 19:36:00,
2013-12-06 11:41:00,31.0,13.6,30.12,NNE,26,0.0,2.0,48,0.00,,---,0.00,281.00,VWS V14.01,2013-12-06 19:41:00,
2013-12-06 11:46:00,31.7,12.3,30.12,NE,46,0.0,3.0,44,0.00,,---,0.00,415.00,VWS V14.01,2013-12-06 19:46:00,
2013-12-06 11:51:00,31.8,12.4,30.12,East,80,0.0,2.0,44,0.00,,---,0.00,399.00,VWS V14.01,2013-12-06 19:51:00,
2013-12-06 11:56:00,32.2,14.7,30.12,NNE,29,0.0,1.0,48,0.00,,---,0.00,431.00,VWS V14.01,2013-12-06 19:56:00,
2013-12-06 12:01:00,32.9,14.9,30.12,NNE,14,0.0,2.0,47,0.00,,---,0.00,380.00,VWS V14.01,2013-12-06 20:01:00,
2013-12-06 12:06:00,33.1,13.1,30.12,West,281,0.0,4.0,43,0.00,,---,0.00,362.00,VWS V14.01,2013-12-06 20:06:00,
2013-12-06 12:11:00,32.9,12.9,30.12,West,280,0.0,1.0,43,0.00,,---,0.00,341.00,VWS V14.01,2013-12-06 20:11:00,
2013-12-06 12:16:00,32.9,13.4,30.11,West,272,0.0,1.0,44,0.00,,---,0.00,394.00,VWS V14.01,2013-12-06 20:16:00,
2013-12-06 12:21:00,33.4,14.4,30.11,West,273,0.0,1.0,45,0.00,,---,0.00,403.00,VWS V14.01,2013-12-06 20:21:00,
2013-12-06 12:26:00,33.4,12.8,30.11,East,98,0.0,1.0,42,0.00,,---,0.00,408.00,VWS V14.01,2013-12-06 20:26:00,
2013-12-06 12:31:00,32.8,12.8,30.11,East,99,0.0,1.0,43,0.00,,---,0.00,392.00,VWS V14.01,2013-12-06 20:31:00,
2013-12-06 12:36:00,33.0,13.5,30.11,ENE,68,0.0,2.0,44,0.00,,---,0.00,424.00,VWS V14.01,2013-12-06 20:36:00,
2013-12-06 12:41:00,33.4,12.2,30.10,ESE,120,0.0,2.0,41,0.00,,---,0.00,417.00,VWS V14.01,2013-12-06 20:41:00,
2013-12-06 12:46:00,33.7,12.5,30.10,ESE,114,0.0,1.0,41,0.00,,---,0.00,420.00,VWS V14.01,2013-12-06 20:46:00,
2013-12-06 12:51:00,33.8,13.1,30.10,ESE,103,0.0,2.0,42,0.00,,---,0.00,427.00,VWS V14.01,2013-12-06 20:51:00,
2013-12-06 12:56:00,34.2,12.4,30.10,ESE,109,0.0,2.0,40,0.00,,---,0.00,424.00,VWS V14.01,2013-12-06 20:56:00,
2013-12-06 13:01:00,34.4,13.1,30.10,ESE,109,0.0,2.0,41,0.00,,---,0.00,418.00,VWS V14.01,2013-12-06 21:01:00,
2013-12-06 13:06:00,34.4,12.0,30.10,East,79,0.0,3.0,39,0.00,,---,0.00,411.00,VWS V14.01,2013-12-06 21:06:00,
2013-12-06 13:11:00,34.4,11.4,30.10,East,81,0.0,4.0,38,0.00,,---,0.00,406.00,VWS V14.01,2013-12-06 21:11:00,
2013-12-06 13:16:00,34.4,12.6,30.10,East,82,0.0,2.0,40,0.00,,---,0.00,401.00,VWS V14.01,2013-12-06 21:16:00,
2013-12-06 13:22:00,35.0,13.1,30.10,East,82,0.0,0.0,40,0.00,,---,0.00,392.00,VWS V14.01,2013-12-06 21:22:00,
2013-12-06 13:27:00,35.6,12.5,30.10,ESE,114,0.0,1.0,38,0.00,,---,0.00,383.00,VWS V14.01,2013-12-06 21:27:00,
2013-12-06 13:32:00,35.5,13.0,30.09,SE,144,0.0,2.0,39,0.00,,---,0.00,373.00,VWS V14.01,2013-12-06 21:32:00,
2013-12-06 13:37:00,35.0,12.0,30.09,SE,134,0.0,2.0,38,0.00,,---,0.00,366.00,VWS V14.01,2013-12-06 21:37:00,
2013-12-06 13:42:00,34.9,12.5,30.09,SE,132,0.0,2.0,39,0.00,,---,0.00,355.00,VWS V14.01,2013-12-06 21:42:00,
2013-12-06 13:47:00,34.9,11.9,30.09,SE,128,0.0,1.0,38,0.00,,---,0.00,343.00,VWS V14.01,2013-12-06 21:47:00,
2013-12-06 13:52:00,34.6,13.3,30.09,East,94,0.0,1.0,41,0.00,,---,0.00,320.00,VWS V14.01,2013-12-06 21:52:00,
2013-12-06 13:57:00,34.8,12.4,30.09,ENE,66,0.0,1.0,39,0.00,,---,0.00,255.00,VWS V14.01,2013-12-06 21:57:00,
2013-12-06 14:02:00,34.5,12.1,30.09,ENE,66,0.0,1.0,39,0.00,,---,0.00,264.00,VWS V14.01,2013-12-06 22:02:00,
2013-12-06 14:07:00,34.7,12.3,30.09,ENE,66,0.0,1.0,39,0.00,,---,0.00,281.00,VWS V14.01,2013-12-06 22:07:00,
2013-12-06 14:12:00,34.4,11.4,30.09,ENE,66,0.0,1.0,38,0.00,,---,0.00,276.00,VWS V14.01,2013-12-06 22:12:00,
2013-12-06 14:17:00,34.4,11.4,30.09,ENE,66,0.0,0.0,38,0.00,,---,0.00,206.00,VWS V14.01,2013-12-06 22:17:00,
2013-12-06 14:22:00,33.9,11.6,30.08,ENE,66,0.0,1.0,39,0.00,,---,0.00,156.00,VWS V14.01,2013-12-06 22:22:00,
2013-12-06 14:27:00,33.6,11.3,30.08,ENE,69,0.0,1.0,39,0.00,,---,0.00,109.00,VWS V14.01,2013-12-06 22:27:00,
2013-12-06 14:32:00,33.1,11.4,30.09,ENE,69,0.0,1.0,40,0.00,,---,0.00,127.00,VWS V14.01,2013-12-06 22:32:00,
2013-12-06 14:37:00,32.4,10.8,30.08,East,93,0.0,4.0,40,0.00,,---,0.00,97.00,VWS V14.01,2013-12-06 22:37:00,
2013-12-06 14:42:00,31.6,11.2,30.09,WNW,298,0.0,5.0,42,0.00,,---,0.00,65.00,VWS V14.01,2013-12-06 22:42:00,
2013-12-06 14:47:00,31.2,10.8,30.09,ENE,66,0.0,5.0,42,0.00,,---,0.00,104.00,VWS V14.01,2013-12-06 22:47:00,
2013-12-06 14:52:00,31.0,10.6,30.09,East,83,0.0,1.0,42,0.00,,---,0.00,47.00,VWS V14.01,2013-12-06 22:52:00,
2013-12-06 14:57:00,30.6,10.2,30.09,ENE,60,0.0,5.0,42,0.00,,---,0.00,62.00,VWS V14.01,2013-12-06 22:57:00,
2013-12-06 15:02:00,30.3,10.5,30.09,East,82,0.0,5.0,43,0.00,,---,0.00,51.00,VWS V14.01,2013-12-06 23:02:00,
2013-12-06 15:07:00,30.0,10.2,30.09,North,9,0.0,5.0,43,0.00,,---,0.00,30.00,VWS V14.01,2013-12-06 23:07:00,
2013-12-06 15:12:00,29.7,10.5,30.09,East,85,1.0,7.0,44,0.00,,---,0.00,32.00,VWS V14.01,2013-12-06 23:12:00,
2013-12-06 15:17:00,29.4,10.2,30.09,North,9,0.0,8.0,44,0.00,,---,0.00,42.00,VWS V14.01,2013-12-06 23:17:00,
2013-12-06 15:22:00,29.1,9.9,30.09,NNW,331,0.0,8.0,44,0.00,,---,0.00,28.00,VWS V14.01,2013-12-06 23:22:00,
2013-12-06 15:27:00,28.8,10.1,30.10,East,93,2.0,2.0,45,0.00,,---,0.00,19.00,VWS V14.01,2013-12-06 23:27:00,
2013-12-06 15:32:00,28.7,10.1,30.10,East,84,0.0,6.0,45,0.00,,---,0.00,18.00,VWS V14.01,2013-12-06 23:32:00,
2013-12-06 15:37:00,28.4,9.8,30.09,ENE,61,0.0,4.0,45,0.00,,---,0.00,14.00,VWS V14.01,2013-12-06 23:37:00,
2013-12-06 15:42:00,28.1,9.5,30.09,ENE,61,0.0,7.0,45,0.00,,---,0.00,12.00,VWS V14.01,2013-12-06 23:42:00,
2013-12-06 15:47:00,27.9,9.3,30.10,ENE,65,0.0,7.0,45,0.00,,---,0.00,12.00,VWS V14.01,2013-12-06 23:47:00,
2013-12-06 15:52:00,27.6,9.1,30.10,NE,45,0.0,4.0,45,0.00,,---,0.00,11.00,VWS V14.01,2013-12-06 23:52:00,
2013-12-06 15:57:00,27.4,8.9,30.10,ESE,110,0.0,8.0,45,0.00,,---,0.00,9.00,VWS V14.01,2013-12-06 23:57:00,
2013-12-06 16:02:00,27.2,9.6,30.10,ENE,74,0.0,8.0,47,0.00,,---,0.00,7.00,VWS V14.01,2013-12-07 00:02:00,
2013-12-06 16:07:00,27.0,9.5,30.10,ENE,74,0.0,2.0,47,0.00,,---,0.00,5.00,VWS V14.01,2013-12-07 00:07:00,
2013-12-06 16:13:00,26.8,9.3,30.10,East,92,0.0,4.0,47,0.00,,---,0.00,0.00,VWS V14.01,2013-12-07 00:13:00,
2013-12-06 16:18:00,26.6,9.6,30.10,ENE,78,1.0,4.0,48,0.00,,---,0.00,0.00,VWS V14.01,2013-12-07 00:18:00,
2013-12-06 16:23:00,26.4,9.4,30.10,ENE,61,1.0,3.0,48,0.00,,---,0.00,0.00,VWS V14.01,2013-12-07 00:23:00,
2013-12-06 16:28:00,26.2,9.2,30.10,East,80,0.0,4.0,48,0.00,,---,0.00,0.00,VWS V14.01,2013-12-07 00:28:00,
2013-12-06 16:33:00,26.0,9.0,30.11,ENE,61,0.0,4.0,48,0.00,,---,0.00,0.00,VWS V14.01,2013-12-07 00:33:00,
2013-12-06 16:38:00,25.8,8.8,30.11,ESE,102,0.0,4.0,48,0.00,,---,0.00,0.00,VWS V14.01,2013-12-07 00:38:00,
2013-12-06 16:43:00,25.6,9.1,30.11,ENE,58,0.0,4.0,49,0.00,,---,0.00,0.00,VWS V14.01,2013-12-07 00:43:00,
2013-12-06 16:48:00,25.5,9.0,30.11,ENE,78,3.0,3.0,49,0.00,,---,0.00,0.00,VWS V14.01,2013-12-07 00:48:00,
2013-12-06 16:53:00,25.3,8.8,30.11,ENE,72,0.0,4.0,49,0.00,,---,0.00,0.00,VWS V14.01,2013-12-07 00:53:00,
2013-12-06 16:58:00,25.1,9.1,30.11,NE,35,0.0,4.0,50,0.00,,---,0.00,0.00,VWS V14.01,2013-12-07 00:58:00,
2013-12-06 17:03:00,25.0,9.4,30.11,ENE,60,0.0,3.0,51,0.00,,---,0.00,0.00,VWS V14.01,2013-12-07 01:03:00,
2013-12-06 17:08:00,24.8,9.2,30.11,ENE,76,2.0,3.0,51,0.00,,---,0.00,0.00,VWS V14.01,2013-12-07 01:08:00,
2013-12-06 17:13:00,24.7,9.2,30.11,NE,46,0.0,4.0,51,0.00,,---,0.00,0.00,VWS V14.01,2013-12-07 01:13:00,
2013-12-06 17:18:00,24.5,9.4,30.11,NE,46,0.0,1.0,52,0.00,,---,0.00,0.00,VWS V14.01,2013-12-07 01:18:00,
2013-12-06 17:23:00,24.4,9.3,30.11,ENE,67,0.0,1.0,52,0.00,,---,0.00,0.00,VWS V14.01,2013-12-07 01:23:00,
2013-12-06 17:28:00,24.2,9.1,30.12,ENE,59,0.0,1.0,52,0.00,,---,0.00,0.00,VWS V14.01,2013-12-07 01:28:00,
2013-12-06 17:33:00,24.0,8.9,30.12,ENE,70,0.0,1.0,52,0.00,,---,0.00,0.00,VWS V14.01,2013-12-07 01:33:00,
2013-12-06 17:38:00,23.9,9.3,30.12,NE,55,0.0,1.0,53,0.00,,---,0.00,0.00,VWS V14.01,2013-12-07 01:38:00,
2013-12-06 17:43:00,23.7,9.5,30.12,NE,52,0.0,1.0,54,0.00,,---,0.00,0.00,VWS V14.01,2013-12-07 01:43:00,
2013-12-06 17:48:00,23.6,9.0,30.12,NE,52,0.0,1.0,53,0.00,,---,0.00,0.00,VWS V14.01,2013-12-07 01:48:00,
2013-12-06 17:53:00,23.5,9.3,30.12,East,79,0.0,2.0,54,0.00,,---,0.00,0.00,VWS V14.01,2013-12-07 01:53:00,
2013-12-06 17:58:00,23.3,9.1,30.12,East,79,0.0,2.0,54,0.00,,---,0.00,0.00,VWS V14.01,2013-12-07 01:58:00,
2013-12-06 18:03:00,23.2,9.0,30.12,East,79,0.0,1.0,54,0.00,,---,0.00,0.00,VWS V14.01,2013-12-07 02:03:00,
2013-12-06 18:08:00,23.0,9.2,30.12,East,79,0.0,1.0,55,0.00,,---,0.00,0.00,VWS V14.01,2013-12-07 02:08:00,
2013-12-06 18:13:00,22.9,9.2,30.12,East,79,0.0,1.0,55,0.00,,---,0.00,0.00,VWS V14.01,2013-12-07 02:13:00,
2013-12-06 18:18:00,22.7,8.6,30.12,ENE,78,0.0,1.0,54,0.00,,---,0.00,0.00,VWS V14.01,2013-12-07 02:18:00,
2013-12-06 18:23:00,22.6,8.9,30.12,ENE,78,0.0,1.0,55,0.00,,---,0.00,0.00,VWS V14.01,2013-12-07 02:23:00,
2013-12-06 18:28:00,22.5,8.8,30.12,ENE,76,0.0,1.0,55,0.00,,---,0.00,0.00,VWS V14.01,2013-12-07 02:28:00,
2013-12-06 18:33:00,22.4,8.7,30.13,ENE,77,0.0,0.0,55,0.00,,---,0.00,0.00,VWS V14.01,2013-12-07 02:33:00,
2013-12-06 18:38:00,22.2,8.9,30.12,ENE,77,0.0,1.0,56,0.00,,---,0.00,0.00,VWS V14.01,2013-12-07 02:38:00,
2013-12-06 18:43:00,22.1,8.4,30.13,ENE,74,0.0,3.0,55,0.00,,---,0.00,0.00,VWS V14.01,2013-12-07 02:43:00,
2013-12-06 18:48:00,22.0,8.7,30.13,ENE,74,0.0,2.0,56,0.00,,---,0.00,0.00,VWS V14.01,2013-12-07 02:48:00,
2013-12-06 18:53:00,21.9,8.6,30.13,ENE,74,0.0,0.0,56,0.00,,---,0.00,0.00,VWS V14.01,2013-12-07 02:53:00,
2013-12-06 18:58:00,21.8,8.9,30.13,ENE,74,0.0,0.0,57,0.00,,---,0.00,0.00,VWS V14.01,2013-12-07 02:58:00,
2013-12-06 19:03:00,21.6,8.7,30.13,ENE,74,0.0,0.0,57,0.00,,---,0.00,0.00,VWS V14.01,2013-12-07 03:03:00,
2013-12-06 19:09:00,21.5,8.6,30.13,ENE,61,0.0,1.0,57,0.00,,---,0.00,0.00,VWS V14.01,2013-12-07 03:09:00,
2013-12-06 19:14:00,21.4,8.6,30.13,NE,43,0.0,3.0,57,0.00,,---,0.00,0.00,VWS V14.01,2013-12-07 03:14:00,
2013-12-06 19:19:00,21.4,8.1,30.13,NE,43,0.0,3.0,56,0.00,,---,0.00,0.00,VWS V14.01,2013-12-07 03:19:00,
2013-12-06 19:24:00,21.3,8.1,30.13,NE,43,0.0,0.0,56,0.00,,---,0.00,0.00,VWS V14.01,2013-12-07 03:24:00,
2013-12-06 19:29:00,21.2,8.4,30.14,NE,46,0.0,1.0,57,0.00,,---,0.00,0.00,VWS V14.01,2013-12-07 03:29:00,
2013-12-06 19:34:00,21.1,8.6,30.14,NE,46,0.0,1.0,58,0.00,,---,0.00,0.00,VWS V14.01,2013-12-07 03:34:00,
2013-12-06 19:39:00,20.9,8.5,30.14,NE,46,0.0,0.0,58,0.00,,---,0.00,0.00,VWS V14.01,2013-12-07 03:39:00,
2013-12-06 19:44:00,20.8,8.8,30.14,NE,46,0.0,0.0,59,0.00,,---,0.00,0.00,VWS V14.01,2013-12-07 03:44:00,
2013-12-06 19:49:00,20.6,8.6,30.14,NE,46,0.0,0.0,59,0.00,,---,0.00,0.00,VWS V14.01,2013-12-07 03:49:00,
2013-12-06 19:54:00,20.6,8.2,30.14,NE,46,0.0,1.0,58,0.00,,---,0.00,0.00,VWS V14.01,2013-12-07 03:54:00,
2013-12-06 19:59:00,20.6,8.6,30.14,NE,48,0.0,1.0,59,0.00,,---,0.00,0.00,VWS V14.01,2013-12-07 03:59:00,
2013-12-06 20:04:00,20.5,8.5,30.14,ENE,58,0.0,3.0,59,0.00,,---,0.00,0.00,VWS V14.01,2013-12-07 04:04:00,
2013-12-06 20:09:00,20.5,8.1,30.14,ENE,69,0.0,3.0,58,0.00,,---,0.00,0.00,VWS V14.01,2013-12-07 04:09:00,
2013-12-06 20:14:00,20.4,8.4,30.14,ENE,69,0.0,0.0,59,0.00,,---,0.00,0.00,VWS V14.01,2013-12-07 04:14:00,
2013-12-06 20:19:00,20.4,8.4,30.15,NE,56,0.0,1.0,59,0.00,,---,0.00,0.00,VWS V14.01,2013-12-07 04:19:00,
2013-12-06 20:24:00,20.3,8.6,30.15,NE,43,0.0,1.0,60,0.00,,---,0.00,0.00,VWS V14.01,2013-12-07 04:24:00,
2013-12-06 20:29:00,20.2,8.2,30.15,NE,43,0.0,1.0,59,0.00,,---,0.00,0.00,VWS V14.01,2013-12-07 04:29:00,
2013-12-06 20:34:00,20.1,8.5,30.15,NE,43,0.0,0.0,60,0.00,,---,0.00,0.00,VWS V14.01,2013-12-07 04:34:00,
2013-12-06 20:39:00,20.0,8.4,30.15,NE,43,0.0,0.0,60,0.00,,---,0.00,0.00,VWS V14.01,2013-12-07 04:39:00,
2013-12-06 20:44:00,20.0,8.0,30.15,NE,43,0.0,0.0,59,0.00,,---,0.00,0.00,VWS V14.01,2013-12-07 04:44:00,
2013-12-06 20:49:00,20.1,8.1,30.15,NE,43,0.0,0.0,59,0.00,,---,0.00,0.00,VWS V14.01,2013-12-07 04:49:00,
2013-12-06 20:54:00,20.2,8.2,30.15,NE,43,0.0,0.0,59,0.00,,---,0.00,0.00,VWS V14.01,2013-12-07 04:54:00,
2013-12-06 20:59:00,20.3,8.3,30.15,NE,43,0.0,0.0,59,0.00,,---,0.00,0.00,VWS V14.01,2013-12-07 04:59:00,
2013-12-06 21:01:00,20.3,7.9,30.15,NE,43,0.0,0.0,58,0.00,,---,0.00,0.00,VWS V14.01,2013-12-07 05:01:00,
2013-12-06 21:02:00,20.3,7.9,30.15,NE,44,0.0,1.0,58,0.00,,---,0.00,0.00,VWS V14.01,2013-12-07 05:02:00,
2013-12-06 21:07:00,20.3,8.3,30.16,NNE,33,0.0,1.0,59,0.00,,---,0.00,0.00,VWS V14.01,2013-12-07 05:07:00,
2013-12-06 21:12:00,20.3,7.9,30.16,NNE,30,0.0,1.0,58,0.00,,---,0.00,0.00,VWS V14.01,2013-12-07 05:12:00,
2013-12-06 21:17:00,20.3,8.3,30.16,NNE,30,0.0,0.0,59,0.00,,---,0.00,0.00,VWS V14.01,2013-12-07 05:17:00,
2013-12-06 21:22:00,20.1,8.1,30.16,NNE,30,0.0,0.0,59,0.00,,---,0.00,0.00,VWS V14.01,2013-12-07 05:22:00,
2013-12-06 21:27:00,20.0,8.0,30.16,NNE,30,0.0,1.0,59,0.00,,---,0.00,0.00,VWS V14.01,2013-12-07 05:27:00,
2013-12-06 21:32:00,19.9,7.9,30.16,NNE,30,0.0,1.0,59,0.00,,---,0.00,0.00,VWS V14.01,2013-12-07 05:32:00,
2013-12-06 21:37:00,19.8,7.8,30.16,NNE,24,0.0,0.0,59,0.00,,---,0.00,0.00,VWS V14.01,2013-12-07 05:37:00,
2013-12-06 21:42:00,19.8,8.2,30.16,NNE,26,0.0,1.0,60,0.00,,---,0.00,0.00,VWS V14.01,2013-12-07 05:42:00,
2013-12-06 21:47:00,20.0,8.0,30.16,NNE,24,0.0,1.0,59,0.00,,---,0.00,0.00,VWS V14.01,2013-12-07 05:47:00,
2013-12-06 21:52:00,20.0,8.0,30.16,NNE,17,0.0,0.0,59,0.00,,---,0.00,0.00,VWS V14.01,2013-12-07 05:52:00,
2013-12-06 21:57:00,20.0,8.0,30.16,NNE,17,0.0,0.0,59,0.00,,---,0.00,0.00,VWS V14.01,2013-12-07 05:57:00,
2013-12-06 22:02:00,20.0,8.0,30.16,NNE,19,0.0,0.0,59,0.00,,---,0.00,0.00,VWS V14.01,2013-12-07 06:02:00,
2013-12-06 22:07:00,19.8,7.8,30.16,NNE,18,0.0,0.0,59,0.00,,---,0.00,0.00,VWS V14.01,2013-12-07 06:07:00,
2013-12-06 22:12:00,19.7,7.7,30.16,NNE,24,0.0,0.0,59,0.00,,---,0.00,0.00,VWS V14.01,2013-12-07 06:12:00,
2013-12-06 22:17:00,19.7,7.7,30.16,NNE,24,0.0,0.0,59,0.00,,---,0.00,0.00,VWS V14.01,2013-12-07 06:17:00,
2013-12-06 22:22:00,19.7,7.7,30.16,NNE,24,0.0,0.0,59,0.00,,---,0.00,0.00,VWS V14.01,2013-12-07 06:22:00,
2013-12-06 22:27:00,19.6,8.0,30.17,NNE,25,0.0,1.0,60,0.00,,---,0.00,0.00,VWS V14.01,2013-12-07 06:27:00,
2013-12-06 22:32:00,19.5,7.9,30.17,NNE,25,0.0,1.0,60,0.00,,---,0.00,0.00,VWS V14.01,2013-12-07 06:32:00,
2013-12-06 22:37:00,19.4,7.8,30.17,NNE,25,0.0,0.0,60,0.00,,---,0.00,0.00,VWS V14.01,2013-12-07 06:37:00,
2013-12-06 22:42:00,19.2,8.0,30.17,NNE,25,0.0,0.0,61,0.00,,---,0.00,0.00,VWS V14.01,2013-12-07 06:42:00,
2013-12-06 22:47:00,19.0,7.8,30.17,NNE,25,0.0,0.0,61,0.00,,---,0.00,0.00,VWS V14.01,2013-12-07 06:47:00,
2013-12-06 22:52:00,18.9,8.1,30.17,NNE,25,0.0,0.0,62,0.00,,---,0.00,0.00,VWS V14.01,2013-12-07 06:52:00,
2013-12-06 22:57:00,18.8,7.6,30.17,NNE,25,0.0,0.0,61,0.00,,---,0.00,0.00,VWS V14.01,2013-12-07 06:57:00,
2013-12-06 23:02:00,18.6,7.8,30.17,NNE,25,0.0,0.0,62,0.00,,---,0.00,0.00,VWS V14.01,2013-12-07 07:02:00,
2013-12-06 23:07:00,18.5,7.7,30.17,NNE,25,0.0,0.0,62,0.00,,---,0.00,0.00,VWS V14.01,2013-12-07 07:07:00,
2013-12-06 23:12:00,18.4,7.6,30.18,NNE,25,0.0,0.0,62,0.00,,---,0.00,0.00,VWS V14.01,2013-12-07 07:12:00,
2013-12-06 23:17:00,18.3,7.5,30.18,NNE,25,0.0,0.0,62,0.00,,---,0.00,0.00,VWS V14.01,2013-12-07 07:17:00,
2013-12-06 23:22:00,18.2,7.4,30.18,NNE,25,0.0,0.0,62,0.00,,---,0.00,0.00,VWS V14.01,2013-12-07 07:22:00,
2013-12-06 23:27:00,18.2,7.4,30.18,NNE,25,0.0,0.0,62,0.00,,---,0.00,0.00,VWS V14.01,2013-12-07 07:27:00,
2013-12-06 23:32:00,18.1,7.3,30.18,NNE,25,0.0,0.0,62,0.00,,---,0.00,0.00,VWS V14.01,2013-12-07 07:32:00,
2013-12-06 23:37:00,18.1,7.3,30.18,NNE,25,0.0,0.0,62,0.00,,---,0.00,0.00,VWS V14.01,2013-12-07 07:37:00,
2013-12-06 23:42:00,18.0,7.5,30.18,NNE,25,0.0,0.0,63,0.00,,---,0.00,0.00,VWS V14.01,2013-12-07 07:42:00,
2013-12-06 23:47:00,18.0,7.5,30.18,NNE,25,0.0,0.0,63,0.00,,---,0.00,0.00,VWS V14.01,2013-12-07 07:47:00,
2013-12-06 23:52:00,17.9,7.4,30.18,NNE,25,0.0,0.0,63,0.00,,---,0.00,0.00,VWS V14.01,2013-12-07 07:52:00,
2013-12-06 23:57:00,17.8,7.3,30.18,NNE,25,0.0,0.0,63,0.00,,---,0.00,0.00,VWS V14.01,2013-12-07 07:57:00,